Location: Gellin
(53.4498°N, 14.3207°E)
Time: 23:07:41
(UTC+00:00)

Cosmos 1689 Rocket - Pass Details

Date: 03 March 2021
Orbit: 350 x 361 km, 97.5° (Epoch: 12 April)

Event Time Altitude Azimuth Distance (km) Brightness Sun altitude
Rises 17:20:03 0° 24° (NNE) 2,211 5.6 -6.1°
Reaches altitude 10° 17:22:15 10° 40° (NE) 1,361 4.4 -6.4°
Maximum altitude 17:24:38 23° 96° (E) 846 3.2 -6.7°
Drops below altitude 10° 17:27:00 10° 151° (SSE) 1,357 4.6 -7.1°
Sets 17:29:11 0° 167° (SSE) 2,202 5.8 -7.4°
